Location: Fours
(44.3167°N, 6.7000°E)
Time: 20:38:53
(UTC+00:00)

Cosmos 2227 - Pass Details

Date: 01 June 2022
Orbit: 832 x 863 km, 71.0° (Epoch: 03 July)

Event Time Altitude Azimuth Distance (km) Brightness Sun altitude
Rises 21:22:10 0° 322° (NW) 3,448 9.1 -17.3°
Reaches altitude 10° 21:25:07 10° 308° (NW) 2,508 7.7 -17.6°
Maximum altitude 21:29:27 22° 259° (W) 1,783 6.1 -17.9°
Drops below altitude 10° 21:33:46 10° 210° (SSW) 2,494 6.3 -18.3°
Enters shadow 21:33:55 - 209° (SSW) 2,540 6.4 -18.3°
